Погода в Усть-Шоноше

Россия / Архангельская область     61°08′40″N   41°22′32″E
темп.,
°C
ветер,
м/с
пор.,
м/с
влажн.,
%
обл.,
%
осадки,
мм/ч
давл.,
гПа
погр.,
м
17 апреля, сб
сб1700:00+2св22801 0.0 103320
03:00+1всв11833 0.0 103410
06:000св11875 0.0 103439
09:00+7св12645 0.0 1033442
12:00+10с12525 0.0 10321280
15:00+11ссз22475 0.0 10311441
18:00+9с235811 0.0 1030119
21:00+5с237545 0.0 103047
18 апреля, вс
вс1800:00+3с25845 0.0 103198
03:00+2с28905 0.0 1031183
06:00+1св399337 0.0 1032374
09:00+3св4677100 0.0 1033843
12:00+6всв45415 0.0 10341224
15:00+7всв45340 0.0 10341451
18:00+5всв35420 0.0 10341131
21:00+1всв28630 0.0 1035186
19 апреля, пн
пн1900:00−1в28710 0.0 1036183
03:00−1в26730 0.0 1037151
06:00−1в26680 0.0 1037213
09:00+4вюв35455 0.0 10381006
12:00+7вюв343587 0.0 10361520
15:00+7вюв3436100 0.0 10361538
18:00+6вюв254656 0.0 1035258
21:00+1вюв23655 0.0 103656
20 апреля, вт
вт2000:000вюв23710 0.0 103647
03:00−1вюв23730 0.0 103651
06:000юв24690 0.0 1036131
09:00+5юв35440 0.0 1035836
12:00+8юв45330 0.0 10331405
15:00+9юв46302 0.0 10311643
18:00+8юв374099 0.0 1029590
21:00+3вюв396253 0.0 1028195
21 апреля, ср
ср2100:00+2вюв31166100 0.0 1027298
03:00+1вюв41269100 0.0 1025379
06:00+1вюв51465100 0.0 1021545
09:00+4вюв61451100 0.0 1018820
12:00+2юв61479100 0.6 1016966
15:00+3юв61493100 2.2 1014965
18:00+3юв61491100 0.0 1012926
21:00+2юв51497100 0.5 1011909